Terminal Aerodrome Forecast
Issued by NWS

Home | Current Version | Previous Version | Text Only | Print | Product List | Glossary On
Versions: 1 2 3 4 5 6 7 8 9 10 11 12 13 14 15 16 17 18 19 20 21 22 23 24
000
FTPA31 PHFO 021100
TAFJRF
TAF
PHJR 021125Z 0212/0312 06005KT P6SM FEW045
     FM022000 07010G18KT P6SM FEW030 SCT050
     FM030500 06005KT P6SM FEW045=

USA.gov is the U.S. government's official web portal to all federal, state and local government web resources and services.